Voltar ao catálogo

BREEZE-M DEB

LostHEO
NORAD 39988·DEBRIS·🇷🇺 Russia

Lançado Mar 14, 2008 de Baikonur Cosmodrome

Loading…

Próximas Passagens (próximas 24 horas)

TLE

ObsoletoSource: Space-Track

Época: Jul 17, 2025, 02:08 UTC

1 39988U 08011DM  25198.08934632 -.00000072  00000-0  00000+0 0  9996
2 39988  49.0030  79.0366 5616967 252.3247  41.3112  2.86578779146867

Acompanhe BREEZE-M DEB em tempo real com AllMySat

Download on the App Store